Regional Weather Roundup
Issued by NWS

Home | Current Version | Previous Version | Text Only | Print | Product List | Glossary Off
Versions: 1 2 3 4 5 6 7 8 9 10 11 12 13 14 15 16 17 18 19 20 21 22 23 24 25 26 27 28 29 30 31 32 33 34 35 36 37 38 39 40 41 42 43 44 45 46 47 48 49 50

000
ASUS43 KFSD 272302
RWRSD

WEATHER ROUNDUP FOR SOUTH DAKOTA
NATIONAL WEATHER SERVICE SIOUX FALLS SD
600 PM CDT MON APR 27 2015

NOTE: "FAIR" INDICATES FEW OR NO CLOUDS BELOW 12,000 FEET WITH NO
SIGNIFICANT WEATHER AND/OR OBSTRUCTIONS TO VISIBILITY.


SDZ001>005-009-010-012>017-280000-
NORTHWEST AND NORTH CENTRAL SOUTH DAKOTA

CITY           SKY/WX    TMP DP  RH WIND       PRES   REMARKS
BUFFALO          N/A     47  35  63 NW8       30.25F
FAITH            N/A     48  41  76 N10       30.29F
MOBRIDGE       CLOUDY    54  43  66 N13       30.24S
$$

SDZ012>016-024>037-041>051-057-063-072>074-280000-
SOUTHWEST AND SOUTH CENTRAL SOUTH DAKOTA

CITY           SKY/WX    TMP DP  RH WIND       PRES   REMARKS
RAPID CTY ARPT CLOUDY    48  42  80 N14       30.30F
PIERRE         LGT RAIN  62  43  49 NW24      30.21S
CUSTER         CLOUDY    44  39  82 W8        30.28F
ELLSWORTH AFB  CLOUDY    47  42  84 N12       30.30
PHILIP         MOSUNNY   57  41  55 N20       30.26S
PINE RIDGE     MOSUNNY   57  41  55 NE15      30.26F
WINNER         MOCLDY    72  30  21 N13       30.17F
$$

SDZ004>011-016>023-039-040-280000-
NORTHEAST SOUTH DAKOTA

CITY           SKY/WX    TMP DP  RH WIND       PRES   REMARKS
ABERDEEN       MOSUNNY   71  30  21 VRB3      30.15F
WATERTOWN      MOSUNNY   67  21  17 CALM      30.17S
BROOKINGS      SUNNY     66  23  19 CALM      30.16F
SISSETON         N/A     71  20  14 N6        30.15F
$$

SDZ017-020-022-023-036>040-048>070-280000-
SOUTHEAST SOUTH DAKOTA

CITY           SKY/WX    TMP DP  RH WIND       PRES   REMARKS
SIOUX FALLS    PTSUNNY   69  25  19 CALM      30.15F
HURON          SUNNY     71  20  14 NE10      30.15F
MITCHELL       SUNNY     70  23  17 NE5       30.16F
YANKTON        MOSUNNY   70  28  21 N7        30.14S
$$

ABBREVIATIONS USED IN REMARKS
   TC - TEMPERATURE IN CELSIUS
  WCI - WIND CHILL INDEX
   HX - HEAT INDEX
  VSB - VISIBILITY




USA.gov is the U.S. government's official web portal to all federal, state and local government web resources and services.